Mojave, CA

4:01 AM PDT on September 21, 2019 (GMT -0700)
Mojave

Weather History for KMHV - August, 2019

Change the Weather History Date:

Saturday, August 24, 2019

  Actual Average Record
Temperature  
Mean Temperature 82 °F -  
Max Temperature 96 °F 93 °F 102 °F (1964)
Min Temperature 68 °F 64 °F 55 °F (1983)
Cooling Degree Days 17    
Growing Degree Days 32 (Base 50)    
Moisture  
Dew Point 43 °F    
Average Humidity 27    
Maximum Humidity 41    
Minimum Humidity 10    
Precipitation  
Precipitation 0.00 in - - ()
Sea Level Pressure  
Sea Level Pressure 30.00 in    
Wind  
Wind Speed 8 mph (SSW)    
Max Wind Speed 17 mph    
Max Gust Speed 25 mph    
Visibility 10 miles    
Events      
Averages and records for this station are not official NWS values.
T = Trace of Precipitation, MM = Missing Value Source: NWS Daily Summary

Daily Weather History Graph

Daily Weather History Graph

Search for Another Location

Airport or City:

Astronomy

Aug. 24, 2019 Rise Set
Actual Time 6:19 AM PDT 7:30 PM PDT
Civil Twilight 5:52 AM PDT 7:56 PM PDT
Nautical Twilight 5:21 AM PDT 8:27 PM PDT
Astronomical Twilight 4:49 AM PDT 8:59 PM PDT
Moon 12:20 AM PDT (8/24) 2:44 PM PDT (8/24)
Length of Visible Light 14h 03m
Length of Day
13h 10m
Last Quarter, 38% of the Moon is Illuminated
Aug 24
Last Quarter
Aug 30
New
Sep 5
First Quarter
Sep 13
Full
Sep 21
Last Quarter

Hourly Weather History & Observations

Time (PDT) Temp. Dew Point Humidity Pressure Visibility Wind Dir Wind Speed Gust Speed Precip Events Conditions
12:00 AM 78.8 °F 37.4 °F 23% 29.93 in 10.0 mi WSW 10.4 mph - N/A   Clear
12:20 AM 77.0 °F 39.2 °F 26% 29.94 in 10.0 mi WSW 6.9 mph - N/A   Partly Cloudy
12:40 AM 75.2 °F 37.4 °F 25% 29.95 in 10.0 mi SSW 6.9 mph - N/A   Partly Cloudy
1:00 AM 75.2 °F 39.2 °F 27% 29.95 in 10.0 mi SW 8.1 mph - N/A   Scattered Clouds
1:20 AM 73.4 °F 41.0 °F 31% 29.96 in 10.0 mi SW 8.1 mph - N/A   Scattered Clouds
1:40 AM 73.4 °F 33.8 °F 23% 29.96 in 10.0 mi WSW 11.5 mph - N/A   Scattered Clouds
2:00 AM 73.4 °F 35.6 °F 25% 29.96 in 10.0 mi WSW 9.2 mph - N/A   Mostly Cloudy
2:20 AM 71.6 °F 39.2 °F 31% 29.96 in 10.0 mi WSW 9.2 mph - N/A   Scattered Clouds
2:40 AM 73.4 °F 39.2 °F 29% 29.96 in 10.0 mi WSW 8.1 mph - N/A   Scattered Clouds
3:00 AM 73.4 °F 41.0 °F 31% 29.96 in 10.0 mi WSW 9.2 mph - N/A   Partly Cloudy
3:20 AM 75.2 °F 41.0 °F 29% 29.96 in 10.0 mi WSW 9.2 mph - N/A   Mostly Cloudy
3:40 AM 75.2 °F 42.8 °F 31% 29.96 in 10.0 mi WSW 8.1 mph - N/A   Overcast
4:00 AM 75.2 °F 44.6 °F 34% 29.96 in 10.0 mi SW 6.9 mph - N/A   Overcast
4:20 AM 75.2 °F 44.6 °F 34% 29.96 in 10.0 mi SSW 5.8 mph - N/A   Overcast
4:40 AM 73.4 °F 44.6 °F 36% 29.96 in 10.0 mi WSW 6.9 mph - N/A   Mostly Cloudy
5:00 AM 71.6 °F 44.6 °F 38% 29.97 in 10.0 mi Calm Calm - N/A   Scattered Clouds
5:20 AM 73.4 °F 44.6 °F 36% 29.97 in 10.0 mi Calm Calm - N/A   Partly Cloudy
5:40 AM 69.8 °F 42.8 °F 38% 29.97 in 10.0 mi Calm Calm - N/A   Partly Cloudy
6:00 AM 69.8 °F 44.6 °F 40% 29.98 in 10.0 mi Calm Calm - N/A   Partly Cloudy
6:20 AM 69.8 °F 44.6 °F 40% 29.99 in 10.0 mi Calm Calm - N/A   Clear
6:40 AM 68.0 °F 42.8 °F 40% 30.00 in 6.0 mi ENE 6.9 mph - N/A   Haze
7:00 AM 68.0 °F 42.8 °F 40% 30.01 in 10.0 mi NE 5.8 mph - N/A   Clear
7:20 AM 69.8 °F 42.8 °F 38% 30.02 in 10.0 mi Calm Calm - N/A   Clear
7:40 AM 71.6 °F 44.6 °F 38% 30.02 in 10.0 mi East 3.5 mph - N/A   Clear
8:00 AM 73.4 °F 44.6 °F 36% 30.03 in 10.0 mi Calm Calm - N/A   Clear
8:20 AM 75.2 °F 44.6 °F 34% 30.03 in 10.0 mi Calm Calm - N/A   Clear
8:40 AM 75.2 °F 44.6 °F 34% 30.03 in 10.0 mi Calm Calm - N/A   Clear
9:00 AM 77.0 °F 46.4 °F 34% 30.03 in 10.0 mi ESE 3.5 mph - N/A   Clear
9:20 AM 80.6 °F 46.4 °F 30% 30.04 in 10.0 mi Variable 3.5 mph - N/A   Clear
9:40 AM 80.6 °F 46.4 °F 30% 30.04 in 10.0 mi East 3.5 mph - N/A   Clear
10:00 AM 82.4 °F 46.4 °F 28% 30.05 in 10.0 mi Variable 3.5 mph - N/A   Clear
10:20 AM 86.0 °F 46.4 °F 25% 30.04 in 10.0 mi Variable 5.8 mph 12.7 mph N/A   Clear
10:40 AM 87.8 °F 44.6 °F 22% 30.04 in 10.0 mi South 9.2 mph 15.0 mph N/A   Clear
11:00 AM 87.8 °F 44.6 °F 22% 30.04 in 10.0 mi SSW 9.2 mph - N/A   Clear
11:20 AM 89.6 °F 44.6 °F 21% 30.04 in 10.0 mi South 9.2 mph - N/A   Clear
11:40 AM 89.6 °F 44.6 °F 21% 30.04 in 10.0 mi South 9.2 mph 17.3 mph N/A   Clear
12:00 PM 89.6 °F 42.8 °F 20% 30.03 in 10.0 mi SW 10.4 mph - N/A   Clear
12:20 PM 91.4 °F 41.0 °F 17% 30.03 in 10.0 mi ESE 8.1 mph 13.8 mph N/A   Clear
12:40 PM 91.4 °F 39.2 °F 16% 30.03 in 10.0 mi SW 8.1 mph 16.1 mph N/A   Unknown
1:00 PM 93.2 °F 37.4 °F 14% 30.02 in 10.0 mi Variable 5.8 mph 15.0 mph N/A   Clear
1:20 PM 93.2 °F 39.2 °F 15% 30.02 in 10.0 mi SSE 10.4 mph - N/A   Clear
1:40 PM 93.2 °F 39.2 °F 15% 30.02 in 10.0 mi South 13.8 mph - N/A   Clear
2:00 PM 93.2 °F 37.4 °F 14% 30.01 in 10.0 mi Calm Calm 12.7 mph N/A   Clear
2:20 PM 95.0 °F 39.2 °F 14% 30.01 in 10.0 mi Variable 4.6 mph 16.1 mph N/A   Clear
2:40 PM 95.0 °F 41.0 °F 15% 30.00 in 10.0 mi Calm Calm 11.5 mph N/A   Clear
3:00 PM 95.0 °F 41.0 °F 15% 30.00 in 10.0 mi SE 6.9 mph - N/A   Clear
3:20 PM 95.0 °F 39.2 °F 14% 29.99 in 10.0 mi SE 9.2 mph 16.1 mph N/A   Clear
3:40 PM 96.8 °F 35.6 °F 12% 29.99 in 10.0 mi South 10.4 mph 17.3 mph N/A   Clear
4:00 PM 96.8 °F 32.0 °F 10% 29.99 in 10.0 mi SW 17.3 mph 25.3 mph N/A   Clear
4:40 PM 95.0 °F 32.0 °F 11% 29.99 in 10.0 mi SW 13.8 mph 23.0 mph N/A   Clear
5:00 PM 95.0 °F 30.2 °F 10% 29.99 in 10.0 mi SSW 13.8 mph 20.7 mph N/A   Clear
5:20 PM 95.0 °F 32.0 °F 11% 29.99 in 10.0 mi SSW 13.8 mph 20.7 mph N/A   Clear
5:40 PM 95.0 °F 37.4 °F 13% 30.00 in 10.0 mi SW 11.5 mph 20.7 mph N/A   Clear
6:00 PM 93.2 °F 44.6 °F 19% 30.00 in 10.0 mi SSW 16.1 mph - N/A   Clear
6:20 PM 91.4 °F 46.4 °F 21% 30.00 in 10.0 mi SSW 15.0 mph 21.9 mph N/A   Clear
6:40 PM 89.6 °F 46.4 °F 22% 30.00 in 10.0 mi SSW 17.3 mph - N/A   Unknown
7:00 PM 87.8 °F 50.0 °F 27% 30.00 in 10.0 mi SSW 12.7 mph 20.7 mph N/A   Clear
7:20 PM 86.0 °F 50.0 °F 29% 30.00 in 10.0 mi SSW 16.1 mph 21.9 mph N/A   Clear
7:40 PM 86.0 °F 48.2 °F 27% 30.01 in 10.0 mi SW 15.0 mph - N/A   Clear
8:00 PM 84.2 °F 46.4 °F 27% 30.01 in 10.0 mi SW 16.1 mph - N/A   Clear
8:20 PM 84.2 °F 46.4 °F 27% 30.01 in 10.0 mi SW 12.7 mph - N/A   Partly Cloudy
8:40 PM 82.4 °F 46.4 °F 28% 30.01 in 10.0 mi WSW 10.4 mph - N/A   Scattered Clouds
9:00 PM 80.6 °F 46.4 °F 30% 30.02 in 10.0 mi WSW 9.2 mph - N/A   Scattered Clouds
9:20 PM 78.8 °F 46.4 °F 32% 30.03 in 10.0 mi SW 8.1 mph - N/A   Scattered Clouds
9:40 PM 78.8 °F 44.6 °F 30% 30.03 in 10.0 mi SW 9.2 mph - N/A   Partly Cloudy
10:00 PM 78.8 °F 46.4 °F 32% 30.04 in 10.0 mi SW 9.2 mph - N/A   Unknown
10:20 PM 78.8 °F 48.2 °F 34% 30.04 in 10.0 mi SW 8.1 mph - N/A   Clear
11:00 PM 77.0 °F 48.2 °F 36% 30.04 in 10.0 mi SW 8.1 mph - N/A   Clear
11:20 PM 77.0 °F 51.8 °F 41% 30.04 in 10.0 mi SW 9.2 mph - N/A   Clear
11:40 PM 78.8 °F 51.8 °F 39% 30.04 in 10.0 mi WSW 8.1 mph - N/A   Clear